Location: Unspecified
(40.8819°N, 0.0000°E)
Time: 09:47:44
(UTC+00:00)

BUGSAT 1 - Pass Details

Date: 03 May 2024
Orbit: 531 x 580 km, 98.1° (Epoch: 25 May)

Event Time Altitude Azimuth Distance (km) Brightness Sun altitude
Rises 19:47:06 0° 174° (S) 2,732 ? -9.0°
Reaches altitude 10° 19:49:13 10° 177° (S) 1,849 ? -9.3°
Maximum altitude 19:53:11 62° 258° (WSW) 645 ? -10.0°
Drops below altitude 10° 19:57:15 10° 340° (NNW) 1,891 ? -10.6°
Sets 19:59:27 0° 344° (NNW) 2,799 ? -11.0°
